QPF
0.00 0.01 0.02 0.02 0.03 0.03 0.04 0.03 0.03 0.03 0.03 0.02 0.01 0.01 0.01 0.01 0.01 0.00 0.00 0.00 0.00 0.00 0.01 0.01 0.00 0.00 0.00 0.01 0.01 0.01 0.01 0.01 0.01 0.01 0.00 0.00 0.01 0.01 0.01 0.01 0.02 0.03 0.04
0.00 0.01 0.02 0.02 0.02 0.02 0.04 0.04 0.04 0.03 0.03 0.02 0.02 0.02 0.01 0.01 0.00 0.00 0.00 0.00 0.00 0.00 0.00 0.01 0.01 0.00 0.00 0.00 0.02 0.03 0.02 0.03 0.02 0.02 0.01 0.01 0.01 0.01 0.00 0.01 0.02 0.05 0.05
0.00 0.01 0.01 0.02 0.02 0.03 0.04 0.04 0.04 0.04 0.03 0.02 0.01 0.01 0.01 0.01 0.00 0.00 0.00 0.00 0.00 0.00 0.00 0.00 0.01 0.00 0.01 0.01 0.02 0.04 0.05 0.05 0.04 0.03 0.02 0.03 0.02 0.01 0.01 0.02 0.03 0.05 0.06
0.00 0.01 0.02 0.05 0.06 0.06 0.07 0.06 0.07 0.08 0.07 0.06 0.04 0.04 0.03 0.02 0.01 0.00 0.00 0.00 0.00 0.00 0.00 0.00 0.00 0.00 0.01 0.02 0.02 0.03 0.05 0.05 0.06 0.03 0.02 0.01 0.01 0.02 0.02 0.03 0.05 0.05 0.05
0.01 0.02 0.06 0.12 0.11 0.11 0.12 0.12 0.13 0.12 0.11 0.10 0.07 0.05 0.04 0.03 0.02 0.01 0.01 0.01 0.00 0.00 0.00 0.00 0.00 0.01 0.01 0.01 0.02 0.03 0.05 0.07 0.07 0.03 0.02 0.01 0.04 0.04 0.03 0.03 0.05 0.05 0.06
0.04 0.06 0.10 0.15 0.16 0.15 0.14 0.14 0.13 0.14 0.12 0.10 0.08 0.06 0.04 0.04 0.03 0.02 0.02 0.01 0.01 0.00 0.01 0.00 0.00 0.01 0.01 0.01 0.02 0.03 0.06 0.10 0.07 0.04 0.03 0.02 0.05 0.04 0.03 0.03 0.05 0.06 0.06
0.08 0.08 0.10 0.17 0.20 0.19 0.16 0.15 0.15 0.15 0.14 0.12 0.09 0.07 0.06 0.05 0.04 0.03 0.02 0.01 0.01 0.01 0.01 0.01 0.01 0.01 0.01 0.01 0.01 0.02 0.06 0.09 0.07 0.05 0.03 0.03 0.03 0.03 0.03 0.04 0.05 0.06 0.08
0.11 0.10 0.10 0.16 0.20 0.19 0.20 0.18 0.18 0.18 0.16 0.14 0.14 0.12 0.11 0.09 0.07 0.05 0.03 0.03 0.02 0.01 0.01 0.01 0.01 0.01 0.02 0.01 0.01 0.02 0.05 0.08 0.07 0.05 0.03 0.03 0.03 0.02 0.03 0.04 0.05 0.05 0.04
0.18 0.15 0.13 0.16 0.17 0.16 0.18 0.18 0.21 0.23 0.22 0.20 0.18 0.17 0.16 0.15 0.12 0.10 0.07 0.05 0.03 0.01 0.01 0.02 0.02 0.02 0.02 0.02 0.02 0.02 0.04 0.05 0.09 0.08 0.02 0.03 0.03 0.02 0.02 0.03 0.05 0.05 0.05
0.23 0.21 0.22 0.27 0.27 0.26 0.26 0.25 0.27 0.32 0.31 0.29 0.23 0.21 0.20 0.17 0.14 0.14 0.11 0.08 0.05 0.03 0.02 0.03 0.03 0.03 0.03 0.03 0.02 0.02 0.04 0.04 0.07 0.06 0.05 0.03 0.03 0.02 0.01 0.02 0.04 0.04 0.04
0.17 0.19 0.23 0.23 0.22 0.23 0.22 0.25 0.28 0.33 0.36 0.36 0.31 0.26 0.24 0.17 0.13 0.14 0.11 0.12 0.10 0.07 0.05 0.04 0.03 0.02 0.03 0.02 0.02 0.02 0.02 0.03 0.07 0.08 0.07 0.03 0.04 0.02 0.01 0.01 0.02 0.03 0.04
0.06 0.06 0.07 0.07 0.07 0.09 0.12 0.15 0.17 0.20 0.26 0.32 0.32 0.30 0.29 0.24 0.20 0.14 0.12 0.15 0.16 0.13 0.10 0.07 0.05 0.03 0.02 0.02 0.01 0.01 0.01 0.03 0.03 0.07 0.05 0.04 0.07 0.04 0.01 0.01 0.02 0.03 0.03
0.01 0.02 0.03 0.03 0.03 0.04 0.05 0.06 0.07 0.10 0.14 0.17 0.22 0.28 0.27 0.26 0.24 0.23 0.21 0.20 0.19 0.17 0.16 0.14 0.10 0.06 0.03 0.02 0.02 0.00 0.01 0.01 0.01 0.03 0.02 0.04 0.09 0.07 0.03 0.02 0.01 0.02 0.03
0.00 0.00 0.01 0.01 0.01 0.01 0.02 0.02 0.03 0.05 0.08 0.11 0.12 0.15 0.17 0.17 0.18 0.25 0.30 0.30 0.26 0.21 0.21 0.19 0.14 0.10 0.05 0.02 0.01 0.00 0.00 0.01 0.02 0.02 0.03 0.02 0.06 0.07 0.05 0.03 0.01 0.01 0.02
0.00 0.00 0.00 0.00 0.01 0.01 0.01 0.01 0.01 0.02 0.03 0.04 0.06 0.08 0.11 0.12 0.14 0.17 0.21 0.26 0.25 0.22 0.21 0.21 0.20 0.16 0.09 0.04 0.02 0.01 0.00 0.01 0.01 0.01 0.03 0.02 0.03 0.06 0.06 0.03 0.02 0.01 0.01
0.00 0.00 0.00 0.00 0.00 0.00 0.00 0.00 0.01 0.01 0.01 0.02 0.03 0.04 0.05 0.06 0.09 0.11 0.12 0.14 0.15 0.17 0.22 0.27 0.25 0.21 0.15 0.08 0.03 0.01 0.01 0.00 0.00 0.00 0.01 0.01 0.01 0.02 0.04 0.03 0.02 0.01 0.01
0.00 0.00 0.00 0.00 0.00 0.00 0.00 0.00 0.00 0.00 0.01 0.01 0.01 0.02 0.03 0.03 0.05 0.08 0.08 0.10 0.11 0.13 0.16 0.21 0.23 0.22 0.16 0.08 0.04 0.02 0.01 0.00 0.00 0.00 0.00 0.01 0.01 0.01 0.02 0.02 0.02 0.02 0.02
0.00 0.00 0.00 0.00 0.00 0.00 0.00 0.00 0.00 0.00 0.00 0.00 0.00 0.01 0.02 0.02 0.02 0.03 0.05 0.08 0.10 0.10 0.11 0.14 0.18 0.20 0.18 0.13 0.08 0.04 0.02 0.02 0.01 0.00 0.00 0.00 0.01 0.02 0.03 0.01 0.01 0.01 0.02
0.00 0.00 0.00 0.00 0.00 0.00 0.00 0.00 0.00 0.00 0.00 0.00 0.00 0.01 0.01 0.01 0.01 0.02 0.03 0.06 0.08 0.09 0.09 0.09 0.12 0.14 0.16 0.16 0.15 0.11 0.06 0.04 0.04 0.01 0.00 0.00 0.00 0.01 0.02 0.02 0.01 0.01 0.01
0.00 0.00 0.00 0.00 0.00 0.00 0.00 0.00 0.00 0.00 0.00 0.00 0.01 0.01 0.01 0.01 0.01 0.01 0.02 0.03 0.05 0.07 0.07 0.08 0.12 0.13 0.12 0.14 0.18 0.15 0.10 0.05 0.03 0.02 0.01 0.00 0.00 0.00 0.00 0.01 0.01 0.01 0.00
0.00 0.00 0.00 0.00 0.00 0.00 0.00 0.00 0.00 0.00 0.01 0.01 0.01 0.01 0.01 0.01 0.01 0.01 0.01 0.01 0.02 0.04 0.06 0.08 0.11 0.13 0.13 0.13 0.15 0.14 0.11 0.07 0.04 0.02 0.01 0.01 0.00 0.01 0.01 0.02 0.02 0.01 0.00
0.00 0.00 0.00 0.00 0.00 0.00 0.00 0.00 0.00 0.00 0.01 0.01 0.01 0.01 0.01 0.00 0.01 0.01 0.01 0.01 0.01 0.02 0.03 0.05 0.07 0.08 0.12 0.17 0.17 0.18 0.15 0.10 0.06 0.03 0.02 0.02 0.01 0.02 0.02 0.01 0.01 0.00 0.00
0.00 0.00 0.00 0.00 0.00 0.00 0.00 0.00 0.00 0.01 0.01 0.01 0.01 0.01 0.01 0.01 0.01 0.01 0.01 0.01 0.02 0.02 0.02 0.04 0.06 0.06 0.07 0.11 0.18 0.22 0.17 0.12 0.09 0.05 0.04 0.03 0.03 0.04 0.02 0.01 0.00 0.00 0.00
0.00 0.00 0.00 0.00 0.00 0.00 0.00 0.00 0.01 0.01 0.01 0.01 0.01 0.01 0.01 0.01 0.01 0.01 0.01 0.02 0.02 0.03 0.03 0.03 0.05 0.06 0.07 0.08 0.11 0.17 0.16 0.14 0.16 0.13 0.06 0.04 0.04 0.06 0.05 0.02 0.00 0.00 0.00
0.00 0.00 0.00 0.00 0.00 0.00 0.00 0.00 0.00 0.00 0.01 0.01 0.01 0.01 0.01 0.01 0.01 0.01 0.01 0.02 0.03 0.03 0.04 0.04 0.05 0.06 0.07 0.07 0.08 0.12 0.12 0.12 0.12 0.14 0.13 0.09 0.06 0.06 0.05 0.04 0.03 0.02 0.01
0.00 0.00 0.00 0.00 0.00 0.00 0.00 0.00 0.00 0.00 0.00 0.00 0.00 0.00 0.01 0.01 0.01 0.01 0.01 0.01 0.02 0.02 0.03 0.04 0.05 0.05 0.07 0.08 0.08 0.10 0.13 0.13 0.12 0.13 0.13 0.11 0.11 0.09 0.08 0.07 0.05 0.05 0.03
MSLP
1015.04 1014.76 1014.68 1014.82 1015.11 1015.45 1015.74 1015.93 1015.97 1015.88 1015.71 1015.56 1015.48 1015.51 1015.66 1015.89 1016.13 1016.33 1016.43 1016.42 1016.31 1016.14 1015.95 1015.80 1015.69 1015.65 1015.65 1015.66 1015.66 1015.63 1015.56 1015.47 1015.36 1015.26 1015.18 1015.12 1015.08 1015.05 1015.03 1015.00 1014.98 1014.97 1014.97
1014.97 1014.68 1014.61 1014.76 1015.07 1015.44 1015.76 1015.97 1016.03 1015.96 1015.82 1015.69 1015.63 1015.68 1015.83 1016.05 1016.27 1016.44 1016.51 1016.46 1016.34 1016.16 1015.98 1015.85 1015.78 1015.77 1015.78 1015.80 1015.79 1015.74 1015.65 1015.54 1015.42 1015.33 1015.27 1015.24 1015.24 1015.24 1015.25 1015.25 1015.23 1015.22 1015.22
1014.92 1014.64 1014.58 1014.75 1015.07 1015.45 1015.78 1016.01 1016.08 1016.04 1015.92 1015.81 1015.77 1015.82 1015.97 1016.16 1016.34 1016.46 1016.49 1016.41 1016.27 1016.10 1015.95 1015.86 1015.82 1015.85 1015.89 1015.91 1015.89 1015.82 1015.71 1015.58 1015.46 1015.37 1015.33 1015.33 1015.36 1015.40 1015.43 1015.45 1015.45 1015.44 1015.45
1014.97 1014.70 1014.67 1014.85 1015.17 1015.54 1015.87 1016.08 1016.16 1016.12 1016.01 1015.91 1015.87 1015.92 1016.04 1016.19 1016.33 1016.41 1016.39 1016.30 1016.15 1016.00 1015.89 1015.84 1015.86 1015.91 1015.98 1016.01 1015.98 1015.89 1015.76 1015.61 1015.49 1015.41 1015.39 1015.42 1015.47 1015.54 1015.58 1015.61 1015.61 1015.61 1015.62
1015.15 1014.92 1014.91 1015.10 1015.41 1015.75 1016.04 1016.22 1016.26 1016.20 1016.08 1015.97 1015.92 1015.95 1016.05 1016.17 1016.26 1016.30 1016.26 1016.15 1016.02 1015.90 1015.83 1015.83 1015.90 1015.99 1016.07 1016.10 1016.07 1015.97 1015.82 1015.66 1015.54 1015.47 1015.47 1015.52 1015.60 1015.67 1015.72 1015.74 1015.74 1015.74 1015.75
1015.48 1015.30 1015.32 1015.50 1015.78 1016.07 1016.29 1016.40 1016.38 1016.27 1016.11 1015.98 1015.91 1015.92 1015.99 1016.08 1016.15 1016.17 1016.12 1016.02 1015.91 1015.83 1015.81 1015.86 1015.96 1016.08 1016.17 1016.20 1016.15 1016.03 1015.88 1015.72 1015.61 1015.56 1015.58 1015.65 1015.73 1015.81 1015.85 1015.85 1015.84 1015.82 1015.83
1015.94 1015.81 1015.84 1016.00 1016.23 1016.44 1016.58 1016.59 1016.50 1016.32 1016.11 1015.95 1015.85 1015.84 1015.89 1015.97 1016.03 1016.04 1015.99 1015.92 1015.84 1015.80 1015.82 1015.90 1016.03 1016.15 1016.24 1016.26 1016.19 1016.06 1015.90 1015.76 1015.66 1015.64 1015.68 1015.77 1015.87 1015.95 1015.98 1015.97 1015.92 1015.88 1015.88
1016.46 1016.36 1016.40 1016.53 1016.70 1016.82 1016.85 1016.77 1016.58 1016.33 1016.07 1015.87 1015.76 1015.73 1015.77 1015.84 1015.90 1015.92 1015.89 1015.84 1015.79 1015.79 1015.83 1015.94 1016.06 1016.18 1016.25 1016.25 1016.16 1016.02 1015.86 1015.72 1015.65 1015.66 1015.74 1015.87 1015.99 1016.08 1016.12 1016.09 1016.02 1015.96 1015.93
1016.96 1016.89 1016.91 1017.01 1017.10 1017.13 1017.06 1016.88 1016.61 1016.29 1015.99 1015.76 1015.63 1015.60 1015.64 1015.71 1015.77 1015.80 1015.79 1015.76 1015.74 1015.75 1015.81 1015.91 1016.03 1016.12 1016.16 1016.12 1016.01 1015.86 1015.70 1015.58 1015.54 1015.59 1015.72 1015.90 1016.06 1016.19 1016.24 1016.22 1016.15 1016.07 1016.01
1017.38 1017.31 1017.32 1017.36 1017.38 1017.33 1017.17 1016.90 1016.57 1016.20 1015.88 1015.63 1015.50 1015.46 1015.50 1015.57 1015.63 1015.67 1015.67 1015.65 1015.64 1015.66 1015.71 1015.80 1015.89 1015.95 1015.96 1015.89 1015.75 1015.58 1015.42 1015.33 1015.32 1015.42 1015.60 1015.83 1016.06 1016.24 1016.34 1016.36 1016.31 1016.22 1016.15
1017.69 1017.60 1017.57 1017.56 1017.52 1017.39 1017.16 1016.84 1016.46 1016.08 1015.74 1015.49 1015.35 1015.32 1015.35 1015.41 1015.47 1015.50 1015.50 1015.47 1015.46 1015.47 1015.51 1015.58 1015.65 1015.68 1015.66 1015.56 1015.41 1015.23 1015.07 1014.99 1015.01 1015.14 1015.38 1015.67 1015.96 1016.22 1016.39 1016.47 1016.47 1016.42 1016.35
1017.86 1017.76 1017.69 1017.63 1017.53 1017.34 1017.07 1016.71 1016.31 1015.92 1015.58 1015.34 1015.21 1015.16 1015.19 1015.23 1015.27 1015.28 1015.26 1015.22 1015.19 1015.19 1015.22 1015.28 1015.33 1015.35 1015.31 1015.20 1015.04 1014.86 1014.71 1014.63 1014.66 1014.82 1015.09 1015.42 1015.79 1016.12 1016.38 1016.55 1016.63 1016.63 1016.59
1017.95 1017.81 1017.71 1017.60 1017.45 1017.22 1016.91 1016.54 1016.14 1015.75 1015.43 1015.20 1015.06 1015.01 1015.01 1015.02 1015.03 1015.01 1014.96 1014.90 1014.86 1014.84 1014.87 1014.92 1014.98 1015.01 1014.98 1014.89 1014.74 1014.57 1014.41 1014.33 1014.35 1014.50 1014.78 1015.14 1015.54 1015.94 1016.28 1016.55 1016.72 1016.80 1016.82
1017.98 1017.82 1017.68 1017.53 1017.34 1017.07 1016.75 1016.37 1015.97 1015.60 1015.28 1015.06 1014.91 1014.84 1014.81 1014.79 1014.76 1014.70 1014.62 1014.54 1014.48 1014.47 1014.50 1014.57 1014.65 1014.71 1014.72 1014.67 1014.55 1014.40 1014.25 1014.16 1014.15 1014.27 1014.51 1014.85 1015.26 1015.69 1016.10 1016.44 1016.71 1016.88 1016.97
1018.02 1017.83 1017.66 1017.47 1017.24 1016.95 1016.61 1016.22 1015.83 1015.47 1015.16 1014.93 1014.78 1014.68 1014.62 1014.56 1014.48 1014.38 1014.28 1014.18 1014.11 1014.10 1014.15 1014.25 1014.38 1014.50 1014.57 1014.58 1014.51 1014.40 1014.26 1014.14 1014.09 1014.14 1014.31 1014.59 1014.96 1015.39 1015.82 1016.22 1016.56 1016.82 1017.00
1018.08 1017.88 1017.68 1017.46 1017.19 1016.88 1016.52 1016.14 1015.75 1015.39 1015.08 1014.84 1014.66 1014.54 1014.44 1014.34 1014.22 1014.10 1013.96 1013.85 1013.78 1013.78 1013.85 1013.99 1014.17 1014.36 1014.51 1014.59 1014.59 1014.52 1014.40 1014.27 1014.17 1014.14 1014.21 1014.40 1014.68 1015.05 1015.46 1015.88 1016.27 1016.61 1016.86
1018.19 1017.97 1017.75 1017.50 1017.20 1016.87 1016.50 1016.11 1015.73 1015.36 1015.05 1014.79 1014.59 1014.43 1014.29 1014.16 1014.01 1013.86 1013.71 1013.58 1013.51 1013.52 1013.61 1013.78 1014.00 1014.25 1014.47 1014.63 1014.71 1014.70 1014.61 1014.47 1014.33 1014.22 1014.19 1014.26 1014.44 1014.71 1015.06 1015.46 1015.86 1016.24 1016.56
1018.32 1018.09 1017.85 1017.57 1017.26 1016.92 1016.54 1016.15 1015.77 1015.40 1015.08 1014.80 1014.57 1014.38 1014.21 1014.04 1013.87 1013.70 1013.53 1013.39 1013.31 1013.31 1013.40 1013.58 1013.82 1014.11 1014.39 1014.62 1014.78 1014.83 1014.79 1014.67 1014.50 1014.34 1014.22 1014.17 1014.23 1014.39 1014.65 1014.98 1015.37 1015.76 1016.12
1018.44 1018.20 1017.94 1017.66 1017.34 1016.99 1016.63 1016.25 1015.86 1015.50 1015.17 1014.87 1014.61 1014.39 1014.19 1014.00 1013.81 1013.62 1013.44 1013.28 1013.18 1013.15 1013.21 1013.37 1013.60 1013.90 1014.21 1014.49 1014.70 1014.83 1014.85 1014.77 1014.62 1014.43 1014.25 1014.11 1014.06 1014.11 1014.26 1014.52 1014.85 1015.22 1015.61
1018.52 1018.27 1018.01 1017.72 1017.41 1017.08 1016.73 1016.38 1016.01 1015.66 1015.32 1015.01 1014.73 1014.48 1014.25 1014.03 1013.82 1013.62 1013.42 1013.24 1013.10 1013.03 1013.04 1013.14 1013.33 1013.59 1013.89 1014.19 1014.45 1014.64 1014.73 1014.72 1014.62 1014.44 1014.24 1014.06 1013.93 1013.88 1013.94 1014.10 1014.36 1014.69 1015.08
1018.53 1018.28 1018.01 1017.73 1017.44 1017.15 1016.84 1016.53 1016.20 1015.87 1015.53 1015.21 1014.91 1014.63 1014.37 1014.13 1013.90 1013.68 1013.46 1013.26 1013.08 1012.95 1012.88 1012.90 1013.01 1013.20 1013.46 1013.75 1014.03 1014.27 1014.43 1014.50 1014.47 1014.35 1014.18 1013.99 1013.82 1013.70 1013.68 1013.75 1013.94 1014.21 1014.57
1018.46 1018.20 1017.94 1017.68 1017.44 1017.20 1016.95 1016.69 1016.41 1016.11 1015.79 1015.46 1015.14 1014.83 1014.55 1014.28 1014.04 1013.80 1013.56 1013.33 1013.10 1012.91 1012.76 1012.69 1012.69 1012.79 1012.97 1013.22 1013.49 1013.75 1013.97 1014.12 1014.18 1014.15 1014.04 1013.89 1013.72 1013.57 1013.49 1013.49 1013.59 1013.80 1014.11
1018.32 1018.06 1017.82 1017.59 1017.39 1017.22 1017.04 1016.85 1016.63 1016.37 1016.06 1015.73 1015.39 1015.06 1014.75 1014.46 1014.19 1013.94 1013.69 1013.44 1013.18 1012.93 1012.70 1012.53 1012.43 1012.42 1012.51 1012.68 1012.91 1013.17 1013.43 1013.65 1013.79 1013.85 1013.83 1013.73 1013.60 1013.46 1013.34 1013.29 1013.32 1013.46 1013.70
1018.14 1017.89 1017.66 1017.47 1017.32 1017.21 1017.11 1016.99 1016.83 1016.60 1016.32 1015.99 1015.63 1015.28 1014.94 1014.63 1014.34 1014.08 1013.83 1013.56 1013.29 1013.00 1012.72 1012.46 1012.26 1012.15 1012.13 1012.21 1012.38 1012.61 1012.86 1013.12 1013.33 1013.47 1013.53 1013.52 1013.44 1013.32 1013.20 1013.11 1013.09 1013.15 1013.33
1017.95 1017.70 1017.49 1017.33 1017.23 1017.18 1017.15 1017.09 1016.98 1016.79 1016.53 1016.20 1015.83 1015.45 1015.09 1014.76 1014.46 1014.20 1013.94 1013.68 1013.40 1013.10 1012.78 1012.47 1012.19 1011.98 1011.86 1011.84 1011.92 1012.09 1012.32 1012.58 1012.82 1013.02 1013.15 1013.21 1013.19 1013.12 1013.02 1012.92 1012.85 1012.86 1012.97
1017.77 1017.52 1017.32 1017.19 1017.13 1017.12 1017.13 1017.12 1017.05 1016.89 1016.65 1016.32 1015.94 1015.55 1015.17 1014.82 1014.52 1014.25 1014.01 1013.76 1013.49 1013.19 1012.86 1012.52 1012.19 1011.90 1011.69 1011.57 1011.55 1011.64 1011.80 1012.03 1012.27 1012.50 1012.68 1012.80 1012.85 1012.83 1012.76 1012.67 1012.60 1012.57 1012.62
Thickness
5790 5789 5781 5779 5777 5775 5774 5773 5772 5771 5769 5769 5768 5767 5766 5765 5765 5765 5765 5765 5765 5765 5766 5766 5767 5768 5769 5769 5770 5771 5772 5772 5773 5774 5774 5775 5775 5775 5775 5775 5775 5776 5773
5790 5787 5779 5777 5775 5774 5772 5771 5770 5769 5768 5767 5766 5765 5765 5764 5763 5763 5762 5762 5763 5763 5763 5764 5765 5765 5766 5766 5767 5768 5769 5769 5769 5770 5771 5772 5772 5772 5772 5772 5773 5773 5771
5787 5784 5778 5775 5773 5772 5770 5769 5769 5768 5767 5766 5765 5764 5764 5763 5762 5761 5761 5761 5761 5761 5761 5762 5763 5763 5763 5764 5764 5765 5765 5765 5766 5766 5768 5771 5771 5769 5769 5769 5769 5769 5769
5784 5781 5778 5772 5770 5769 5768 5768 5767 5766 5766 5765 5764 5763 5763 5762 5761 5760 5760 5760 5760 5760 5760 5760 5761 5761 5761 5761 5762 5762 5762 5762 5762 5763 5768 5770 5770 5766 5766 5766 5766 5766 5766
5779 5776 5772 5768 5767 5766 5765 5765 5765 5764 5764 5763 5763 5762 5761 5761 5760 5760 5759 5759 5759 5759 5759 5759 5759 5759 5759 5759 5759 5760 5760 5760 5760 5762 5765 5766 5766 5763 5763 5764 5764 5764 5764
5774 5771 5767 5763 5762 5762 5761 5761 5761 5761 5761 5761 5761 5761 5760 5760 5760 5759 5759 5759 5758 5759 5758 5758 5758 5758 5758 5758 5758 5758 5758 5758 5759 5762 5762 5763 5764 5761 5761 5761 5762 5762 5762
5767 5765 5762 5758 5757 5757 5757 5756 5757 5757 5758 5758 5759 5759 5759 5759 5759 5759 5758 5758 5758 5758 5758 5757 5757 5757 5757 5757 5757 5757 5757 5757 5760 5761 5761 5762 5761 5759 5759 5760 5760 5760 5761
5758 5757 5756 5753 5752 5751 5751 5752 5752 5753 5754 5754 5755 5756 5756 5757 5757 5757 5757 5757 5757 5757 5757 5757 5756 5756 5756 5756 5756 5756 5756 5756 5760 5761 5761 5761 5759 5758 5758 5758 5758 5759 5759
5752 5751 5750 5749 5747 5746 5746 5746 5747 5748 5750 5750 5751 5752 5753 5754 5755 5755 5756 5756 5756 5756 5756 5756 5756 5756 5755 5755 5755 5755 5756 5756 5759 5760 5762 5761 5758 5757 5757 5757 5757 5758 5758
5747 5745 5744 5743 5742 5742 5742 5741 5742 5744 5745 5746 5747 5748 5750 5751 5752 5753 5754 5755 5755 5755 5755 5755 5755 5755 5755 5755 5755 5755 5755 5756 5759 5761 5762 5761 5757 5757 5756 5756 5756 5757 5757
5739 5739 5737 5737 5736 5736 5737 5737 5738 5740 5742 5743 5744 5745 5746 5748 5750 5752 5754 5754 5754 5754 5754 5755 5755 5755 5755 5755 5755 5755 5755 5760 5762 5762 5762 5759 5757 5756 5756 5756 5756 5756 5756
5729 5730 5731 5730 5730 5730 5731 5732 5734 5736 5738 5739 5741 5741 5742 5743 5745 5748 5751 5751 5751 5752 5753 5753 5754 5754 5755 5760 5759 5756 5760 5762 5762 5762 5762 5758 5756 5756 5756 5755 5755 5755 5756
5721 5721 5722 5722 5723 5724 5725 5726 5728 5730 5732 5735 5736 5737 5738 5739 5742 5744 5746 5748 5750 5751 5752 5754 5754 5757 5760 5762 5763 5763 5764 5765 5765 5764 5763 5758 5756 5756 5756 5755 5755 5755 5755
5712 5711 5712 5713 5715 5716 5717 5719 5722 5725 5727 5729 5731 5733 5735 5737 5739 5741 5742 5745 5746 5749 5751 5752 5754 5757 5760 5763 5762 5764 5765 5763 5764 5764 5762 5758 5756 5756 5756 5755 5755 5755 5755
5704 5704 5704 5704 5705 5707 5708 5710 5715 5718 5720 5724 5725 5728 5730 5733 5736 5738 5740 5742 5744 5745 5747 5749 5751 5755 5757 5760 5762 5764 5765 5765 5764 5763 5762 5758 5756 5756 5756 5755 5755 5755 5754
5697 5697 5697 5697 5698 5698 5701 5703 5707 5709 5712 5716 5719 5721 5724 5728 5731 5734 5736 5739 5741 5742 5744 5745 5747 5750 5751 5754 5757 5760 5762 5764 5763 5762 5762 5760 5757 5756 5756 5755 5755 5755 5754
5692 5692 5690 5690 5690 5691 5693 5695 5698 5701 5704 5708 5711 5714 5717 5721 5725 5728 5731 5735 5737 5738 5740 5742 5744 5744 5747 5749 5751 5755 5758 5760 5762 5763 5763 5762 5761 5757 5756 5755 5755 5754 5754
5688 5686 5685 5684 5683 5684 5685 5686 5690 5693 5696 5700 5703 5706 5710 5713 5716 5720 5724 5729 5732 5734 5735 5737 5739 5739 5741 5743 5746 5750 5753 5755 5757 5760 5762 5762 5762 5762 5757 5755 5754 5754 5754
5683 5681 5681 5679 5677 5677 5678 5680 5683 5686 5689 5692 5695 5698 5701 5704 5708 5712 5716 5720 5725 5728 5731 5733 5735 5736 5736 5738 5741 5744 5748 5750 5753 5756 5760 5762 5763 5761 5761 5756 5754 5753 5753
5681 5679 5678 5675 5673 5672 5673 5676 5677 5680 5683 5685 5688 5689 5691 5694 5699 5703 5708 5713 5717 5720 5724 5727 5728 5730 5732 5734 5736 5739 5741 5744 5747 5751 5755 5759 5762 5762 5761 5760 5755 5753 5752
5679 5677 5675 5673 5671 5669 5668 5669 5669 5672 5675 5678 5680 5681 5683 5687 5691 5696 5700 5705 5708 5712 5716 5720 5722 5724 5726 5730 5729 5730 5733 5738 5741 5745 5749 5753 5757 5759 5759 5759 5758 5757 5754
5677 5675 5674 5671 5668 5666 5663 5664 5665 5666 5669 5671 5673 5675 5677 5680 5684 5688 5692 5696 5700 5703 5707 5712 5714 5716 5720 5723 5723 5721 5721 5726 5733 5738 5742 5745 5751 5755 5756 5757 5758 5756 5756
5677 5674 5671 5668 5666 5664 5662 5661 5662 5664 5665 5667 5668 5669 5671 5674 5676 5680 5684 5688 5692 5696 5700 5704 5707 5708 5711 5715 5719 5718 5717 5720 5726 5730 5735 5739 5743 5749 5751 5754 5756 5756 5755
5677 5674 5671 5669 5666 5663 5661 5659 5657 5657 5657 5659 5661 5664 5667 5669 5671 5673 5676 5680 5684 5688 5692 5696 5701 5703 5704 5706 5711 5715 5719 5722 5718 5719 5725 5732 5736 5740 5744 5749 5752 5755 5754
5677 5673 5670 5668 5665 5662 5659 5657 5655 5655 5655 5657 5659 5660 5663 5665 5666 5668 5671 5674 5677 5681 5684 5688 5692 5695 5698 5700 5703 5707 5710 5714 5717 5717 5717 5721 5726 5733 5737 5741 5746 5749 5751
5678 5674 5670 5667 5664 5661 5659 5657 5655 5653 5653 5654 5654 5655 5658 5660 5661 5663 5664 5667 5671 5674 5677 5680 5684 5687 5690 5694 5697 5701 5704 5707 5711 5713 5715 5717 5718 5723 5728 5733 5738 5742 5745